Find Starlink 2082

NORAD ID: 47367 Int'l Des: 2021-005 Owner: SPXS Country: US Constellation: starlink operational
LEOCIRCULARSTARLINK_TYPE

現在のビュー

3D地球を読み込み中...

About Starlink 2082

Starlink 2082 (NORAD 47367) is a starlink constellation satellite (v1.0) launched Jan 20, 2021 by SPXS of US. It operates in LEO, CIRCULAR, STARLINK_TYPE orbit with a mass of 260.00 kg.

次回通過

Passes for default location (London). Set your location on the main map for personalized predictions.

高度履歴

Loading altitude history...

軌道要素

1 47367U 21005U 26265.62053470 .00001125 00000-0 48023-4 0 9993
2 47367 53.1590 226.1815 0001306 88.6995 271.4156 15.31694669313207
Epoch: Sep 22, 2026 • Age: 12 hours

現在のステータス

高度 473.6 km
遠地点 / 近地点 N/A
速度 7.63 km/s
衛星直下点 39.88°N, 32.61°W
打ち上げ日 Jan 20, 2021
運用期間 5.6 years
タイプ internet

技術仕様

分類 Payload
質量 260.00 kg
乾燥質量 248.00 kg
長さ 0.20 m
スパン 9.00 m
形状 ? Box + pan
製造者 SPXS
バスタイプ Starlink
フェーズステータス In Orbit
所有者/国 SPXS/US

Most Searched